DW6561 Weather Reports


time (UTC)temp
C
wind
direction
speed
KPH
gust
KPH
rain 1hr
cm
rain 24hr
cm
rain mn
cm
humidity
%
barometer
mb
20260905014521 20 17 0.0 0.0 0.00 0.00 0.00 38 1014.3
20260905013015 21 17 0.0 0.0 0.00 0.00 0.00 36 1014.2
20260905011501 21 19 0.0 3.2 0.00 0.00 0.00 36 1014.1
20260905010006 21 142 0.0 0.0 0.00 0.00 0.00 36 1014.0
20260905004509 21 333 0.0 0.0 0.00 0.00 0.00 35 1014.0
20260905003004 22 333 0.0 0.0 0.00 0.00 0.00 34 1013.9
20260905001503 22 117 0.0 0.0 0.00 0.00 0.00 33 1013.8
20260905000011 22 117 0.0 4.8 0.00 0.00 0.00 34 1013.9
20260904234502 22 129 0.0 0.0 0.00 0.00 0.00 36 1014.0
20260904233016 22 111 0.0 3.2 0.00 0.00 0.00 39 1013.9
20260904231503 22 117 0.0 3.2 0.00 0.00 0.00 37 1013.9
20260904230004 22 103 0.0 0.0 0.00 0.00 0.00 37 1013.9
20260904224505 23 98 1.6 4.8 0.00 0.00 0.00 38 1013.9
20260904223011 23 327 0.0 6.4 0.00 0.00 0.00 39 1014.0
20260904221506 23 109 0.0 1.6 0.00 0.00 0.00 41 1014.1
20260904220008 22 74 0.0 4.8 0.00 0.00 0.00 41 1014.2
20260904214512 22 103 0.0 0.0 0.00 0.00 0.00 45 1014.2
20260904213011 22 131 0.0 0.0 0.00 0.00 0.00 43 1014.1
20260904211510 22 86 0.0 3.2 0.00 0.00 0.00 43 1014.1
20260904210004 22 125 0.0 4.8 0.00 0.00 0.00 42 1014.1
20260904204505 22 123 0.0 3.2 0.00 0.00 0.00 43 1014.0
20260904203009 21 92 0.0 4.8 0.00 0.00 0.00 44 1014.1
20260904201511 21 288 0.0 1.6 0.00 0.00 0.00 45 1014.1
20260904200014 21 296 0.0 3.2 0.00 0.00 0.00 45 1014.1
20260904194512 21 196 0.0 3.2 0.00 0.00 0.00 47 1014.2
20260904193003 21 344 0.0 1.6 0.00 0.00 0.00 45 1014.3
20260904191504 21 300 0.0 1.6 0.00 0.00 0.00 44 1014.5
20260904190019 21 89 0.0 3.2 0.00 0.00 0.00 46 1014.6
20260904184529 21 103 0.0 0.0 0.00 0.00 0.00 48 1014.7
20260904183018 20 183 0.0 0.0 0.00 0.00 0.00 47 1014.8
20260904181509 20 145 0.0 0.0 0.00 0.00 0.00 47 1014.7
20260904180011 20 258 0.0 0.0 0.00 0.00 0.00 49 1014.5
20260904174511 19 316 0.0 0.0 0.00 0.00 0.00 51 1014.4
20260904173037 18 308 0.0 0.0 0.00 0.00 0.00 51 1014.3
20260904171530 18 73 0.0 0.0 0.00 0.00 0.00 55 1014.3
20260904170016 17 88 0.0 0.0 0.00 0.00 0.00 58 1014.2
20260904164520 16 103 0.0 0.0 0.00 0.00 0.00 61 1014.2
20260904163018 16 336 0.0 0.0 0.00 0.00 0.00 62 1014.2
20260904161505 15 337 0.0 0.0 0.00 0.00 0.00 63 1014.2
20260904160012 15 74 0.0 0.0 0.00 0.00 0.00 66 1014.1
20260904154509 14 296 0.0 0.0 0.00 0.00 0.00 68 1014.0
20260904153003 13 327 0.0 0.0 0.00 0.00 0.00 68 1013.9
20260904151503 13 202 0.0 0.0 0.00 0.00 0.00 70 1013.7
20260904150014 13 202 0.0 1.6 0.00 0.00 0.00 71 1013.6
20260904144514 12 179 0.0 8.0 0.00 0.00 0.00 73 1013.4
20260904143015 11 174 3.2 8.0 0.00 0.00 0.00 74 1013.3
20260904141505 11 156 4.8 12.9 0.00 0.00 0.00 74 1012.8
20260904140008 10 176 6.4 12.9 0.00 0.00 0.00 77 1012.6
20260904134506 10 159 0.0 0.0 0.00 0.00 0.00 77 1012.5
20260904133021 10 159 0.0 3.2 0.00 0.00 0.00 78 1012.3
20260904131527 10 183 0.0 9.7 0.00 0.00 0.00 78 1012.1
20260904130025 10 123 1.6 6.4 0.00 0.00 0.00 78 1012.1
20260904124510 10 58 0.0 0.0 0.00 0.00 0.00 77 1012.1
20260904123013 10 58 0.0 0.0 0.00 0.00 0.00 77 1012.1
20260904121511 10 183 0.0 0.0 0.00 0.00 0.00 77 1011.9
20260904120029 11 183 0.0 1.6 0.00 0.00 0.00 77 1011.7
20260904114536 11 188 0.0 0.0 0.00 0.00 0.00 72 1011.7
20260904113026 11 188 0.0 1.6 0.00 0.00 0.00 72 1011.5
20260904111522 11 188 0.0 9.7 0.00 0.00 0.00 71 1011.3
20260904110020 11 181 4.8 14.5 0.00 0.00 0.00 70 1011.1
20260904104513 11 186 4.8 9.7 0.00 0.00 0.00 70 1011.0
20260904103032 12 94 0.0 6.4 0.00 0.00 0.00 68 1010.9
20260904101519 12 136 1.6 8.0 0.00 0.00 0.00 68 1010.8
20260904100003 12 176 1.6 11.3 0.00 0.00 0.00 66 1010.6
20260904094508 11 155 3.2 9.7 0.00 0.00 0.00 63 1010.4
20260904093012 11 147 3.2 8.0 0.00 0.00 0.00 63 1010.4
20260904091517 12 215 0.0 3.2 0.00 0.00 0.00 64 1010.4
20260904090016 12 98 0.0 1.6 0.00 0.00 0.00 61 1010.3
20260904084504 13 92 0.0 0.0 0.00 0.00 0.00 58 1010.3
20260904083008 13 113 0.0 8.0 0.00 0.00 0.00 54 1010.3
20260904081506 13 191 0.0 8.0 0.00 0.00 0.00 56 1010.2
20260904080021 13 178 1.6 8.0 0.00 0.00 0.00 56 1010.4
20260904074523 13 273 0.0 0.0 0.00 0.00 0.00 55 1010.6
20260904073003 13 190 0.0 3.2 0.00 0.00 0.00 55 1010.4
20260904071513 13 124 0.0 4.8 0.00 0.00 0.00 56 1010.3
20260904070015 13 117 0.0 4.8 0.00 0.00 0.00 57 1010.3
20260904064508 13 34 0.0 1.6 0.00 0.00 0.00 57 1010.3
20260904063030 13 136 0.0 0.0 0.00 0.00 0.00 57 1010.1
20260904061508 13 128 0.0 0.0 0.00 0.00 0.00 56 1009.9
20260904060013 14 128 0.0 0.0 0.00 0.00 0.00 55 1009.8
20260904054523 14 128 0.0 0.0 0.00 0.00 0.00 54 1009.8
20260904053014 15 117 0.0 3.2 0.00 0.00 0.00 51 1009.8
20260904051511 15 104 0.0 8.0 0.00 0.00 0.00 50 1009.8
20260904050018 15 136 3.2 11.3 0.00 0.00 0.00 49 1009.9
20260904044555 15 182 3.2 11.3 0.00 0.00 0.00 48 1009.9
20260904043024 16 152 1.6 11.3 0.00 0.00 0.00 47 1009.8
20260904041526 16 136 1.6 6.4 0.00 0.00 0.00 48 1009.7
20260904040003 16 142 0.0 4.8 0.00 0.00 0.00 48 1009.3
20260904034502 16 143 0.0 4.8 0.00 0.00 0.00 48 1009.4
20260904033002 16 128 0.0 4.8 0.00 0.00 0.00 48 1009.2
20260904031504 16 159 0.0 6.4 0.00 0.00 0.00 49 1009.3
20260904030008 16 189 1.6 4.8 0.00 0.00 0.00 48 1009.3
20260904024505 17 115 1.6 4.8 0.00 0.00 0.00 47 1009.0
20260904023003 17 134 0.0 6.4 0.00 0.00 0.00 46 1008.8
20260904021509 17 153 0.0 3.2 0.00 0.00 0.00 44 1008.9
20260904020003 18 169 0.0 0.0 0.00 0.00 0.00 44 1009.0